Overview Statistics Trail Chart Weather Telemetry Raw packets
 

This is the latest recevied weather packets stored in our database for station/object KB3AWQ. If no packets are shown the sender has not sent any weather packets the latest 10 day(s).

<< 108 109 110 111 112 >>
Time Temp. Humidity Pressure Rain* Wind** Luminosity Snow
1787744966 14.44° C 99% 1020.6 hPa 0 mm - 47 W/m² -
1787744668 14.44° C 99% 1020.6 hPa 0 mm - 47 W/m² -
1787744366 14.44° C 99% 1020.5 hPa 0 mm - 38 W/m² -
1787744066 13.89° C 99% 1020.5 hPa 0 mm - 39 W/m² -
1787743768 13.89° C 99% 1020.4 hPa 0 mm - 35 W/m² -
1787743467 13.89° C 99% 1020.4 hPa 0 mm - 28 W/m² -
1787743167 13.89° C 99% 1020.4 hPa 0 mm - 31 W/m² -
1787742867 13.89° C 99% 1020.4 hPa 0 mm - 30 W/m² -
1787742566 13.89° C 99% 1020.4 hPa 0 mm - 24 W/m² -
1787742266 13.89° C 99% 1020.3 hPa 0 mm - 18 W/m² -
1787741967 13.89° C 99% 1020.4 hPa 0 mm - 14 W/m² -
1787741667 13.89° C 99% 1020.3 hPa 0 mm - 11 W/m² -
1787741367 13.89° C 99% 1020.3 hPa 0 mm - 9 W/m² -
1787741066 13.89° C 99% 1020.2 hPa 0 mm - 6 W/m² -
1787740766 13.89° C 99% 1020.2 hPa 0 mm - 5 W/m² -
1787740468 13.89° C 99% 1020.1 hPa 0 mm - 3 W/m² -
1787740166 13.89° C 99% 1020.1 hPa 0 mm - 2 W/m² -
1787739866 13.89° C 99% 1020 hPa 0 mm - 1 W/m² -
1787739566 13.89° C 99% 1019.8 hPa 0 mm - 1 W/m² -
1787739266 13.89° C 99% 1019.8 hPa 0 mm - 0 W/m² -
1787738966 13.89° C 99% 1019.7 hPa 0 mm - 0 W/m² -
1787738668 13.89° C 99% 1019.8 hPa 0 mm - 0 W/m² -
1787738366 14.44° C 99% 1019.7 hPa 0 mm - 0 W/m² -
1787738066 14.44° C 99% 1019.7 hPa 0 mm - 0 W/m² -
1787737767 14.44° C 99% 1019.7 hPa 0 mm - 0 W/m² -

* Rain latest hour (hover to see other rain measurements)
** Current wind speed in m/s (hover to see current wind gust speed)